Wetbulb
61.20 60.17 62.16 60.11 51.91 51.21 45.38 45.89 49.18 48.14 48.57 51.48 51.61 50.99 50.48 51.41 49.10 47.05 60.85 64.07 66.33 68.80 71.64 73.11 73.10 74.10 73.97 73.77 73.46 73.29 73.20 72.57 72.33 72.11 71.79 71.58 71.11 71.95 72.14 71.36 71.10 70.49 69.51 68.83 68.44 67.31 66.48 65.68 65.46
60.00 58.61 60.04 56.47 48.81 43.78 44.49 47.95 47.23 49.27 50.63 51.70 51.49 51.24 50.74 49.65 54.19 57.12 60.96 63.49 66.23 68.82 71.48 73.10 72.01 73.39 73.62 73.34 73.36 73.08 72.89 72.27 71.69 71.28 71.13 71.04 71.39 72.28 71.99 70.85 70.13 69.99 69.98 69.03 67.78 66.41 65.28 64.06 63.72
58.17 56.08 56.44 52.80 49.17 43.83 44.49 47.83 49.07 50.26 50.79 50.88 50.68 52.28 51.70 51.22 55.69 58.25 62.70 64.35 67.69 68.94 71.40 72.69 71.66 73.25 73.25 73.18 73.03 72.70 72.63 72.19 71.44 70.96 70.78 70.65 71.42 72.13 71.51 70.63 69.70 68.93 68.89 68.47 67.35 65.76 64.20 62.67 62.26
58.39 57.51 53.84 48.96 45.00 46.00 46.82 48.38 49.89 50.24 50.77 51.12 51.00 49.64 52.12 56.52 57.60 61.50 64.15 66.04 67.67 69.00 70.78 71.07 71.82 73.22 73.20 72.92 72.88 72.24 72.15 71.96 71.54 71.23 71.17 70.94 70.68 71.85 71.17 70.58 69.05 68.01 66.63 65.94 66.09 65.04 63.04 61.15 60.87
57.05 55.36 49.74 46.16 44.96 46.41 48.35 49.46 50.08 49.55 49.30 50.33 50.48 48.71 50.69 54.63 58.88 62.90 64.61 66.15 66.74 68.55 70.39 71.86 71.10 72.56 72.85 72.80 72.91 72.53 72.10 71.89 71.72 71.46 71.34 71.13 70.57 71.18 70.40 69.50 68.35 67.07 65.93 65.17 64.90 63.93 62.12 59.93 59.83
54.24 53.34 47.22 44.08 44.78 46.56 48.67 49.66 49.75 48.54 48.64 49.88 49.40 49.48 50.66 55.01 56.13 60.00 63.02 65.21 67.31 68.42 69.63 70.47 68.41 69.90 71.66 71.99 72.04 72.18 72.37 72.23 72.15 72.22 71.71 70.94 70.62 70.61 69.51 68.26 67.64 66.86 66.06 65.48 64.62 63.11 61.41 59.07 58.56
51.30 50.99 46.18 45.95 45.28 46.15 48.02 49.20 48.50 48.56 48.81 49.16 50.87 48.25 51.60 52.08 54.10 60.30 59.93 61.78 62.99 65.93 68.64 70.12 70.72 70.11 66.57 69.24 69.65 70.74 71.34 71.25 71.34 71.14 70.95 70.80 70.30 70.13 68.68 68.19 67.60 66.35 65.97 65.41 64.07 62.43 60.78 58.50 56.93
52.44 51.32 45.40 45.81 44.64 45.51 48.64 48.62 49.28 49.43 48.66 50.73 51.15 47.91 49.05 50.61 52.03 55.71 55.65 55.21 55.36 55.35 57.39 59.82 67.22 68.48 70.34 71.79 66.02 67.22 69.19 69.71 70.09 69.74 68.96 68.06 67.83 68.34 66.20 65.08 66.46 66.28 65.79 65.12 63.50 61.93 60.22 57.99 55.40
49.85 46.54 44.30 45.29 45.01 46.60 48.96 48.01 49.62 50.07 49.65 49.68 49.21 48.69 47.86 49.41 51.75 53.28 53.45 53.52 53.62 53.14 53.63 54.66 56.82 60.68 66.93 68.88 68.81 65.88 66.15 67.33 67.42 67.64 65.85 66.36 70.34 69.61 66.94 64.29 65.36 66.41 66.06 65.09 63.47 61.81 59.25 55.45 50.70
49.25 46.46 44.30 47.76 48.07 47.97 48.54 48.47 49.08 48.50 48.69 47.98 48.25 48.45 48.47 49.28 49.90 49.86 49.79 50.00 50.45 50.84 51.98 52.81 54.04 55.81 58.86 66.94 68.61 69.27 70.16 71.11 71.01 70.56 69.77 69.11 69.73 68.86 66.31 62.45 63.00 64.17 64.36 64.78 63.68 61.52 57.79 57.72 57.19
47.77 45.65 45.19 46.83 48.45 49.34 48.58 48.45 49.43 48.49 47.03 48.40 48.15 47.33 46.97 47.76 47.86 47.73 47.93 47.96 48.02 49.75 51.80 52.32 52.98 53.78 55.98 65.88 68.29 68.95 69.00 70.45 70.47 69.78 68.65 68.29 67.23 66.29 65.88 64.99 63.92 64.62 61.46 63.19 63.06 60.58 61.08 59.83 58.56
46.33 47.27 47.34 48.48 49.10 48.19 47.91 49.27 48.32 48.63 47.50 46.39 46.36 45.86 45.89 45.94 45.73 45.65 46.22 46.93 47.85 49.39 50.65 52.53 53.60 55.11 55.54 62.09 67.13 67.80 67.87 68.93 69.42 66.29 67.83 68.80 68.28 66.84 65.63 65.38 63.81 63.63 63.72 62.97 60.84 59.85 59.68 60.04 57.04
47.48 47.61 47.80 48.90 48.17 48.33 47.54 47.98 47.73 46.67 45.55 45.60 45.00 44.86 44.81 44.83 44.60 45.27 45.75 47.03 47.83 48.46 50.60 52.09 55.07 57.24 57.48 58.38 66.65 66.73 66.30 66.09 65.01 64.67 64.35 65.42 65.38 66.63 67.52 66.63 64.06 64.30 63.96 64.30 62.95 59.25 56.50 58.25 58.28
47.23 46.85 47.22 47.51 47.14 47.08 46.27 46.48 46.64 44.34 45.26 44.39 44.33 43.90 43.79 43.25 43.12 44.91 45.25 45.99 46.59 48.04 49.84 52.56 52.57 57.41 59.47 63.14 64.33 63.20 62.67 61.85 61.37 61.60 62.19 62.36 62.55 62.67 62.57 62.28 62.01 62.42 61.58 61.42 59.01 56.88 55.76 54.22 52.76
46.32 44.99 46.61 46.84 45.87 45.92 46.86 43.06 44.29 45.72 45.27 43.60 42.42 42.54 41.83 41.77 42.92 42.81 43.63 44.67 45.44 48.26 50.24 47.53 50.77 54.86 56.35 55.81 54.91 54.42 54.65 55.35 55.69 56.48 56.96 58.48 60.29 60.83 60.53 59.04 58.19 57.76 57.30 56.69 56.26 53.67 53.04 53.17 52.30
44.33 44.09 43.11 45.28 45.27 44.79 45.65 43.98 44.75 45.12 44.77 43.70 42.35 42.07 41.47 40.66 41.31 42.36 42.87 43.80 45.06 47.39 48.26 47.56 49.63 49.91 49.54 49.61 49.35 48.53 48.82 50.62 51.54 52.30 53.44 54.13 55.08 56.25 55.90 54.75 54.51 55.39 55.12 54.61 54.24 53.56 52.55 51.29 49.65
42.95 41.93 41.46 43.33 44.91 44.50 44.42 44.50 45.01 44.83 44.84 43.58 42.54 41.45 40.89 41.07 41.36 41.60 41.99 42.63 43.71 45.70 47.51 46.56 47.48 46.96 46.58 46.56 45.73 44.67 44.69 46.19 47.92 48.24 48.89 48.32 51.92 52.56 52.49 53.26 53.67 54.07 52.87 52.05 52.31 51.43 51.71 51.49 50.62
41.60 40.11 40.56 41.98 43.78 43.50 43.47 44.22 43.68 43.84 43.91 43.63 41.96 41.06 40.67 40.08 38.89 40.02 41.01 41.81 43.37 45.42 47.31 47.57 46.35 46.89 46.21 46.01 45.09 44.48 43.91 43.57 44.05 45.16 46.28 47.42 47.73 49.95 51.37 51.71 51.98 52.74 51.90 50.88 52.40 51.68 51.60 49.77 48.34
43.11 41.72 42.02 42.25 42.83 42.74 44.01 44.35 44.68 43.45 42.51 41.65 41.28 40.63 40.11 39.18 39.23 40.07 40.37 41.42 42.96 44.00 45.15 46.29 47.54 47.98 50.56 49.50 48.44 46.33 43.68 42.82 41.80 41.86 42.79 43.77 44.59 45.73 46.78 46.79 47.04 48.19 47.47 47.61 48.59 50.60 50.28 49.50 48.84
40.85 40.87 41.49 42.04 41.62 41.97 42.90 42.21 45.70 42.22 43.26 43.40 41.39 40.32 39.66 38.96 38.98 38.67 39.45 40.29 40.72 41.18 42.58 43.38 44.02 45.39 46.05 46.46 45.30 43.45 40.86 39.77 39.81 39.68 39.30 40.02 40.27 40.69 41.06 42.20 42.07 43.42 44.05 43.63 44.79 45.81 47.44 47.60 47.35
40.20 39.96 41.15 40.29 40.34 41.08 40.19 40.70 42.98 41.46 39.93 40.00 40.78 41.16 40.15 39.86 38.32 38.12 37.91 38.51 39.89 39.07 40.00 40.73 41.65 42.50 43.32 42.45 41.38 40.34 40.39 40.01 38.62 37.77 37.13 37.37 38.11 38.31 38.67 38.72 38.94 38.78 39.28 38.36 39.19 41.08 42.29 43.04 44.81
38.67 41.71 40.48 38.98 38.07 36.68 40.17 36.59 40.84 41.70 39.14 37.55 38.00 38.38 38.88 38.47 38.25 37.33 37.38 37.50 37.43 37.06 38.26 38.49 39.64 39.94 40.47 41.54 41.40 40.76 38.91 35.91 36.01 36.19 36.35 36.04 36.75 36.50 37.05 37.09 37.15 37.16 37.19 36.58 36.85 37.41 37.61 38.34 36.41
41.10 40.40 39.73 39.08 38.33 36.85 37.01 35.54 41.24 37.67 37.47 36.99 37.52 38.19 38.91 38.81 37.61 36.02 35.86 35.05 35.10 36.31 36.47 37.18 37.41 37.33 37.93 38.65 38.91 37.99 36.22 36.01 36.27 36.11 35.35 35.24 35.27 35.52 35.34 35.79 35.77 35.45 35.67 35.72 35.58 35.66 35.77 36.23 35.45
40.24 39.39 38.27 37.79 37.19 31.77 37.29 36.52 39.37 38.75 39.94 40.10 38.16 37.72 37.84 37.14 36.63 35.97 35.25 34.53 34.18 35.03 35.50 36.16 35.52 35.09 36.36 37.13 37.67 37.05 35.81 35.28 34.89 34.82 34.23 34.26 34.49 34.43 34.42 34.35 34.49 34.38 34.10 33.92 34.31 34.72 34.30 34.31 34.47
40.18 39.04 33.50 30.87 30.29 30.63 33.32 33.84 40.04 42.68 39.22 40.75 38.17 37.37 37.64 37.11 35.85 34.98 33.88 33.63 33.79 33.96 34.29 34.69 34.77 33.77 34.98 35.37 35.51 35.59 35.46 35.40 34.57 34.43 34.30 33.94 33.58 33.17 32.61 33.35 33.00 32.84 32.72 32.73 33.20 33.01 33.01 32.74 32.54
37.71 40.16 35.72 28.55 28.30 32.44 30.71 30.63 37.92 37.65 37.74 37.80 40.79 39.03 37.68 36.49 35.97 35.11 34.80 34.50 33.75 33.52 34.25 34.12 34.07 33.06 34.12 34.36 34.10 34.64 34.85 34.59 34.11 33.98 33.81 33.44 33.04 32.59 32.78 32.31 32.10 31.49 31.33 31.36 31.17 31.16 30.82 31.06 31.14
36.55 34.07 40.09 30.98 24.73 30.47 35.26 36.31 40.28 35.51 35.48 35.94 37.08 36.92 36.01 36.08 35.72 35.41 35.17 34.69 34.04 34.00 33.91 34.11 33.68 33.38 33.56 33.48 33.65 33.43 33.76 33.60 32.83 32.94 33.39 32.80 32.62 31.30 31.24 30.80 30.29 30.03 29.91 29.80 29.96 29.73 29.14 29.79 29.82
38.76 40.35 32.47 33.93 28.51 27.57 33.10 34.17 38.16 35.05 36.04 35.07 34.89 35.68 36.65 36.88 36.15 35.94 35.10 34.41 34.74 34.81 34.37 34.24 34.11 33.44 33.37 33.41 33.56 33.06 32.94 33.07 32.80 32.72 31.72 31.55 31.04 30.76 30.25 30.13 29.94 29.69 29.58 29.32 29.28 29.07 29.32 28.69 29.48
34.76 34.79 35.46 36.50 34.55 31.50 30.80 34.86 41.05 41.29 39.75 36.45 37.13 37.26 37.52 36.82 36.57 36.38 35.91 35.22 34.29 34.21 33.71 33.34 33.42 33.04 32.77 33.16 33.04 32.74 32.38 32.34 32.44 31.99 31.61 31.13 30.18 29.62 28.89 28.32 28.13 27.53 27.32 27.34 27.60 27.25 27.30 26.63 27.05
39.82 38.12 37.21 33.66 29.33 31.16 30.64 35.35 36.73 39.27 40.69 39.79 39.02 37.99 38.62 38.09 37.52 37.29 37.21 35.82 33.75 32.87 32.74 32.82 33.14 32.91 33.23 33.15 32.69 32.53 32.36 32.02 31.63 31.20 30.70 30.16 29.03 28.34 27.28 26.70 26.50 26.12 25.77 25.85 25.41 25.21 25.62 25.00 24.93
MSLP
1015.93 1015.66 1015.20 1014.59 1014.13 1013.52 1014.01 1014.90 1015.19 1015.04 1015.07 1015.53 1015.60 1015.27 1015.00 1015.20 1015.36 1016.32 1017.21 1017.46 1017.80 1017.79 1018.27 1018.80 1019.04 1019.19 1019.51 1019.86 1020.23 1020.41 1020.50 1020.61 1020.74 1020.87 1020.98 1021.10 1021.16 1021.16 1021.28 1021.37 1021.35 1021.42 1021.39 1021.59 1021.66 1021.75 1021.74 1021.57 1021.55
1015.77 1015.48 1014.84 1014.14 1013.50 1013.28 1014.22 1015.00 1015.00 1015.25 1015.54 1015.73 1015.77 1015.58 1015.33 1015.71 1016.24 1016.64 1017.06 1017.89 1018.13 1017.98 1018.24 1018.54 1019.21 1019.33 1019.55 1019.88 1020.24 1020.47 1020.57 1020.70 1020.83 1020.98 1021.10 1021.21 1021.24 1021.31 1021.41 1021.46 1021.54 1021.62 1021.64 1021.86 1021.98 1022.08 1022.07 1021.92 1021.86
1015.92 1015.46 1014.25 1013.95 1013.86 1013.72 1014.36 1015.07 1015.16 1015.63 1015.82 1015.63 1015.57 1015.94 1015.92 1016.38 1016.87 1017.31 1018.07 1018.06 1018.19 1018.29 1018.51 1018.75 1019.36 1019.48 1019.65 1019.98 1020.35 1020.57 1020.68 1020.81 1020.97 1021.12 1021.26 1021.38 1021.41 1021.41 1021.49 1021.63 1021.74 1021.79 1021.95 1022.10 1022.29 1022.39 1022.33 1022.30 1022.20
1015.63 1015.07 1015.05 1014.01 1014.20 1014.99 1015.01 1015.28 1015.52 1015.58 1015.83 1015.91 1015.83 1015.74 1016.76 1017.82 1017.87 1018.42 1018.54 1018.35 1018.23 1018.42 1018.71 1019.19 1019.66 1019.72 1019.83 1020.06 1020.40 1020.67 1020.84 1020.97 1021.09 1021.19 1021.27 1021.35 1021.40 1021.51 1021.58 1021.62 1021.87 1022.01 1022.28 1022.47 1022.56 1022.68 1022.65 1022.54 1022.51
1015.54 1014.83 1014.29 1014.48 1014.94 1015.42 1015.71 1015.84 1015.88 1015.61 1015.74 1015.75 1016.07 1016.17 1016.95 1018.30 1018.77 1018.86 1018.83 1018.77 1018.63 1018.72 1018.94 1019.22 1019.75 1019.83 1019.92 1020.04 1020.24 1020.58 1020.78 1020.91 1021.06 1021.25 1021.36 1021.46 1021.54 1021.61 1021.73 1021.90 1022.10 1022.29 1022.54 1022.68 1022.78 1022.94 1022.98 1022.81 1022.72
1014.98 1015.09 1014.35 1014.42 1015.10 1015.72 1016.02 1016.22 1016.07 1015.90 1016.02 1016.16 1016.14 1016.52 1017.81 1019.07 1019.14 1019.34 1019.27 1019.10 1018.98 1019.03 1019.36 1019.44 1019.87 1019.98 1019.97 1020.05 1020.17 1020.42 1020.73 1020.95 1021.08 1021.11 1021.33 1021.58 1021.70 1021.85 1022.08 1022.23 1022.39 1022.55 1022.66 1022.84 1023.00 1023.14 1023.14 1023.08 1023.03
1015.15 1014.93 1014.83 1014.91 1015.25 1015.66 1015.97 1016.52 1016.18 1016.12 1016.25 1016.54 1016.95 1016.86 1018.04 1018.90 1019.97 1019.88 1019.79 1019.66 1019.75 1019.82 1019.69 1019.71 1019.73 1020.08 1020.31 1020.25 1020.28 1020.37 1020.57 1020.84 1021.10 1021.22 1021.40 1021.63 1021.81 1022.03 1022.25 1022.43 1022.53 1022.67 1022.81 1023.03 1023.23 1023.29 1023.34 1023.38 1023.31
1015.97 1015.50 1015.41 1015.39 1015.39 1015.60 1016.23 1016.47 1016.68 1016.49 1016.71 1017.39 1017.61 1017.69 1018.70 1019.84 1020.53 1020.23 1020.15 1020.16 1020.28 1020.53 1020.57 1020.52 1020.22 1020.23 1020.18 1019.88 1020.37 1020.54 1020.60 1020.88 1021.12 1021.32 1021.46 1021.59 1021.85 1022.06 1022.27 1022.39 1022.55 1022.69 1022.84 1023.08 1023.30 1023.44 1023.56 1023.67 1023.75
1016.66 1015.60 1015.43 1015.54 1015.71 1015.88 1016.62 1016.58 1017.05 1017.40 1017.24 1017.81 1018.81 1019.55 1020.88 1021.13 1020.79 1020.38 1020.28 1020.30 1020.55 1020.78 1020.92 1020.89 1020.71 1020.65 1020.42 1020.30 1020.16 1020.59 1020.71 1020.85 1021.04 1021.16 1021.37 1021.62 1021.42 1021.81 1022.13 1022.29 1022.59 1022.79 1022.85 1022.95 1023.24 1023.48 1023.76 1023.82 1023.90
1016.36 1015.84 1015.85 1016.08 1016.04 1016.20 1016.81 1016.96 1017.20 1017.55 1017.75 1018.53 1019.52 1020.79 1021.46 1021.45 1021.24 1020.98 1020.91 1020.89 1021.05 1021.18 1021.28 1021.28 1021.04 1020.76 1020.65 1020.33 1020.28 1020.40 1020.42 1020.46 1020.46 1020.63 1020.89 1021.23 1021.31 1021.79 1022.27 1022.58 1022.79 1022.91 1022.99 1023.14 1023.21 1023.39 1023.50 1023.61 1023.56
1016.87 1016.32 1016.66 1016.78 1016.82 1016.97 1017.11 1017.33 1017.69 1017.84 1018.40 1019.26 1019.86 1021.00 1021.78 1021.88 1021.90 1021.87 1021.88 1021.97 1021.95 1021.85 1021.57 1021.55 1021.39 1021.18 1020.72 1020.22 1020.24 1020.43 1020.59 1020.43 1020.45 1020.61 1020.87 1021.20 1021.57 1021.99 1022.29 1022.57 1022.95 1023.07 1023.12 1023.13 1023.21 1023.40 1023.29 1023.31 1023.44
1016.98 1017.23 1017.22 1017.39 1017.55 1017.65 1017.58 1017.79 1017.99 1018.55 1019.67 1020.76 1021.38 1021.96 1022.24 1022.36 1022.58 1022.71 1022.67 1022.64 1022.49 1022.16 1021.95 1021.70 1021.52 1021.12 1020.90 1020.31 1020.12 1020.37 1020.60 1020.59 1020.72 1021.08 1021.27 1021.04 1021.27 1021.69 1022.02 1022.32 1022.53 1022.76 1023.04 1023.20 1023.55 1023.65 1023.61 1023.51 1023.64
1017.27 1017.42 1017.59 1017.72 1017.92 1017.98 1018.19 1018.07 1018.26 1019.27 1020.64 1021.54 1022.12 1022.52 1022.70 1022.94 1023.19 1023.34 1023.28 1023.05 1022.83 1022.51 1022.31 1022.03 1021.55 1021.05 1020.74 1020.55 1020.25 1020.66 1020.91 1021.10 1021.44 1021.70 1021.84 1021.75 1021.83 1021.61 1021.95 1022.43 1022.72 1022.78 1022.79 1022.74 1022.88 1023.52 1023.96 1023.84 1023.76
1017.61 1017.64 1017.55 1017.63 1017.75 1017.95 1018.06 1018.22 1018.82 1019.93 1021.06 1021.80 1022.43 1022.86 1023.28 1023.63 1023.83 1023.71 1023.68 1023.47 1023.27 1022.99 1022.67 1022.42 1022.20 1021.51 1020.60 1020.32 1020.78 1021.14 1021.48 1021.99 1022.39 1022.60 1022.62 1022.49 1022.38 1022.36 1022.59 1022.73 1022.97 1023.16 1023.47 1023.60 1023.76 1024.03 1024.08 1024.21 1024.29
1017.97 1017.60 1017.25 1017.19 1017.64 1017.78 1018.06 1018.46 1018.50 1019.59 1021.00 1021.88 1022.77 1023.43 1024.00 1024.30 1024.33 1024.36 1024.37 1024.14 1024.05 1023.64 1023.36 1023.11 1022.63 1022.03 1021.95 1022.14 1022.34 1022.54 1022.92 1023.08 1023.07 1023.19 1023.33 1023.30 1023.23 1023.15 1023.16 1023.30 1023.51 1023.84 1023.82 1023.81 1023.95 1024.23 1024.35 1024.32 1024.37
1017.90 1017.78 1017.03 1016.95 1017.47 1017.95 1018.22 1017.42 1018.45 1019.87 1020.78 1021.78 1022.80 1023.55 1024.06 1024.55 1024.73 1024.89 1024.96 1024.81 1024.68 1024.38 1024.04 1023.83 1023.45 1023.29 1023.02 1023.16 1023.64 1023.92 1024.12 1024.11 1024.30 1024.46 1024.56 1024.25 1024.14 1023.79 1023.92 1024.15 1024.36 1024.27 1024.29 1024.30 1024.31 1024.45 1024.44 1024.44 1024.31
1017.74 1016.87 1016.93 1016.87 1017.31 1017.65 1017.97 1017.37 1018.50 1019.87 1020.66 1021.59 1022.60 1023.37 1023.97 1024.42 1024.76 1025.08 1025.21 1025.07 1024.89 1024.64 1024.30 1024.18 1024.04 1024.05 1024.36 1024.32 1024.13 1024.69 1025.04 1024.91 1025.11 1025.24 1025.17 1025.20 1024.79 1024.57 1024.70 1024.78 1024.85 1024.69 1024.77 1024.79 1024.78 1024.84 1024.77 1024.75 1024.60
1016.66 1016.97 1016.97 1016.83 1017.27 1017.60 1017.58 1017.42 1018.59 1019.72 1020.58 1021.44 1022.52 1023.34 1024.02 1024.57 1025.16 1025.54 1025.58 1025.59 1025.35 1024.98 1024.67 1024.30 1024.07 1023.81 1023.87 1024.42 1025.01 1025.13 1025.58 1026.19 1026.48 1026.23 1026.10 1025.87 1025.67 1025.47 1025.31 1025.33 1025.27 1025.20 1025.22 1025.16 1024.98 1025.09 1025.08 1025.00 1024.78
1016.99 1016.99 1016.74 1017.16 1017.71 1017.79 1017.35 1017.32 1018.03 1019.55 1020.64 1021.53 1022.46 1023.28 1023.98 1024.78 1025.52 1025.83 1026.05 1026.00 1025.80 1025.58 1025.30 1025.32 1025.16 1025.17 1024.69 1024.82 1024.97 1025.63 1026.01 1026.77 1027.22 1027.43 1027.37 1027.20 1027.03 1026.85 1026.57 1026.37 1026.25 1025.89 1025.76 1026.08 1025.81 1025.46 1025.34 1025.26 1025.05
1017.69 1017.44 1017.12 1017.62 1018.10 1018.19 1017.55 1017.32 1017.60 1019.23 1019.88 1020.84 1021.96 1022.92 1023.76 1024.73 1025.43 1025.90 1026.00 1025.98 1025.88 1025.72 1025.55 1025.51 1025.54 1025.60 1025.55 1025.66 1025.78 1026.35 1026.97 1027.74 1028.08 1028.40 1028.38 1028.18 1028.12 1028.05 1027.68 1027.54 1027.54 1027.29 1026.93 1026.71 1026.78 1026.53 1025.87 1025.81 1025.76
1017.99 1017.72 1017.47 1017.89 1018.41 1018.49 1018.16 1016.96 1017.01 1018.71 1020.10 1021.29 1022.04 1022.68 1023.53 1023.98 1024.56 1025.20 1025.88 1026.20 1026.25 1026.26 1026.08 1025.77 1025.66 1025.46 1025.24 1025.75 1026.52 1027.13 1027.30 1027.78 1028.38 1028.76 1028.99 1029.16 1029.11 1029.04 1028.93 1028.79 1028.66 1028.51 1028.35 1028.14 1027.90 1027.76 1027.50 1026.87 1026.66
1017.91 1017.93 1018.27 1018.53 1018.80 1018.20 1018.40 1016.22 1016.37 1017.60 1019.31 1020.93 1022.00 1022.76 1023.53 1024.52 1025.26 1025.88 1026.06 1026.28 1026.86 1027.03 1026.92 1026.82 1026.71 1026.79 1026.62 1026.60 1026.46 1026.32 1027.33 1028.21 1029.10 1029.33 1029.63 1029.72 1029.70 1029.74 1029.72 1029.62 1029.38 1029.40 1029.40 1029.13 1029.00 1028.76 1028.44 1028.01 1027.82
1018.17 1018.48 1018.75 1018.96 1018.84 1018.90 1018.60 1018.30 1015.92 1017.59 1018.29 1019.78 1021.23 1022.42 1023.31 1024.23 1025.04 1025.80 1026.43 1026.63 1027.00 1027.14 1027.20 1027.11 1027.08 1027.28 1027.29 1027.21 1027.09 1027.23 1027.70 1028.53 1029.23 1029.82 1030.26 1030.43 1030.63 1030.73 1030.68 1030.40 1030.26 1030.04 1030.02 1030.16 1030.01 1029.61 1029.53 1029.02 1028.74
1019.02 1019.22 1019.55 1019.74 1019.51 1018.44 1017.73 1017.93 1015.28 1016.31 1016.65 1018.29 1020.53 1021.70 1022.75 1023.88 1024.78 1025.63 1026.64 1027.14 1027.40 1027.70 1027.65 1027.42 1027.48 1027.65 1027.54 1027.84 1027.90 1027.99 1028.44 1029.05 1029.54 1029.80 1030.34 1030.77 1031.07 1031.17 1031.31 1031.04 1030.88 1030.82 1030.49 1030.63 1030.48 1030.43 1030.28 1029.90 1029.57
1018.65 1018.81 1019.21 1019.49 1019.46 1017.71 1017.74 1017.70 1014.96 1015.66 1016.95 1017.89 1019.20 1021.00 1022.52 1023.82 1024.90 1025.60 1026.47 1027.01 1027.43 1027.62 1027.76 1027.83 1027.84 1028.12 1028.31 1028.31 1028.56 1028.63 1028.95 1029.23 1029.80 1029.99 1030.28 1030.60 1030.93 1031.28 1031.37 1031.51 1031.47 1031.26 1031.14 1030.98 1030.89 1030.72 1030.67 1030.44 1030.16
1017.93 1017.52 1017.59 1017.86 1018.28 1017.56 1018.16 1016.48 1015.19 1016.26 1017.25 1018.50 1019.08 1020.54 1022.03 1023.15 1024.23 1024.95 1025.60 1026.31 1026.94 1027.40 1027.45 1027.77 1028.08 1028.32 1028.52 1029.03 1028.99 1029.44 1029.44 1029.76 1030.19 1030.30 1030.56 1030.96 1031.26 1031.94 1031.99 1031.94 1031.87 1031.83 1031.75 1031.47 1031.38 1031.15 1031.13 1030.98 1030.66
1017.90 1017.72 1017.22 1017.94 1018.99 1017.99 1015.97 1015.37 1015.32 1016.41 1017.45 1018.61 1019.60 1020.71 1021.62 1022.60 1023.70 1024.52 1025.32 1026.06 1026.74 1027.20 1027.49 1027.78 1027.95 1028.58 1029.04 1029.00 1029.16 1029.60 1029.84 1029.96 1030.30 1030.78 1031.08 1031.29 1031.62 1032.26 1032.57 1032.63 1032.50 1032.42 1032.26 1031.90 1031.60 1031.39 1031.34 1031.20 1030.80
1016.81 1016.59 1017.59 1017.59 1017.24 1016.18 1014.52 1014.35 1013.74 1015.34 1016.29 1017.95 1019.26 1019.96 1020.99 1022.26 1023.30 1024.10 1024.81 1025.58 1026.40 1027.06 1027.49 1027.63 1028.04 1028.26 1028.58 1028.96 1029.27 1029.75 1030.08 1030.50 1030.72 1031.03 1031.22 1031.54 1031.76 1032.24 1032.29 1032.35 1032.48 1032.41 1032.28 1032.17 1031.68 1031.34 1031.26 1031.13 1030.77
1016.77 1016.36 1016.13 1015.80 1015.48 1014.71 1013.88 1012.55 1012.55 1013.28 1014.70 1016.20 1017.67 1018.86 1019.96 1021.15 1022.15 1023.02 1024.04 1025.14 1026.14 1026.78 1027.13 1027.51 1027.68 1028.40 1028.54 1028.72 1029.34 1029.56 1030.26 1030.75 1030.83 1031.17 1031.46 1031.35 1031.85 1032.21 1032.26 1032.39 1032.49 1032.40 1032.36 1032.16 1031.90 1031.73 1031.37 1031.16 1030.89
1015.15 1014.72 1014.68 1014.31 1014.84 1014.76 1014.34 1012.22 1012.84 1013.65 1014.41 1015.69 1016.81 1018.12 1019.27 1020.30 1021.25 1022.32 1023.43 1024.57 1025.37 1026.16 1026.70 1027.12 1027.60 1028.01 1028.28 1028.59 1028.93 1029.37 1029.90 1030.47 1030.81 1031.20 1031.65 1031.83 1031.96 1032.29 1032.31 1032.69 1032.36 1032.45 1032.26 1032.21 1032.05 1031.77 1031.38 1031.10 1030.78
Wind_Speed
3 3 2 3 3 2 5 4 2 2 2 2 2 3 9 6 6 6 2 4 2 8 12 12 9 11 12 12 10 9 9 10 10 10 9 9 7 6 11 12 11 11 12 12 13 12 12 12 11
2 2 2 0 2 6 6 2 4 4 3 0 1 1 3 8 4 4 2 2 3 7 12 12 9 10 12 12 10 9 9 9 9 9 9 8 7 9 12 12 11 12 13 13 12 12 12 12 11
1 3 2 1 1 5 6 3 3 3 2 1 2 2 3 4 5 4 6 3 2 8 10 9 8 9 10 11 10 8 8 9 9 8 8 8 7 10 10 10 10 13 13 12 11 12 12 12 11
2 3 3 1 8 3 3 4 2 4 3 1 1 6 4 7 4 7 6 3 2 6 8 8 6 6 9 10 11 9 9 8 8 7 7 8 8 8 7 9 10 11 10 8 9 10 12 12 12
1 1 2 5 4 3 1 0 1 2 2 3 1 4 5 7 6 8 7 4 4 4 6 8 7 6 8 9 11 11 9 9 9 8 7 7 7 7 6 8 10 9 8 7 8 9 10 11 11
1 2 4 6 5 3 2 1 2 2 1 3 1 4 5 8 10 8 7 7 6 4 2 3 5 4 6 8 9 12 10 8 9 10 8 7 7 8 7 8 8 8 8 8 8 9 10 11 11
1 1 3 5 8 6 4 1 3 3 4 5 2 3 7 10 12 6 8 9 9 9 5 2 3 5 5 6 6 9 11 9 6 4 5 7 6 6 7 7 8 7 7 8 8 9 10 11 11
2 1 6 4 9 6 4 3 1 1 4 2 3 4 4 8 11 2 6 8 9 9 7 6 4 3 6 8 4 5 6 6 5 5 5 7 6 6 8 7 7 7 8 9 8 8 8 8 9
1 3 5 7 8 6 4 5 2 2 1 4 5 5 6 9 7 3 3 7 6 7 7 6 5 4 4 5 5 5 6 6 7 8 8 7 6 8 9 6 7 6 7 9 9 8 7 5 5
2 2 4 3 3 6 5 2 2 4 2 4 5 7 6 7 8 8 9 8 9 10 9 8 7 5 4 3 5 5 5 7 8 7 5 1 2 3 4 5 7 6 6 6 8 9 9 2 3
1 1 4 4 3 2 4 2 2 2 3 3 2 5 6 7 8 8 7 7 8 9 7 9 8 7 6 5 3 2 2 4 3 1 2 3 3 3 2 3 2 2 4 2 4 4 1 3 2
2 2 2 3 3 3 3 2 3 4 4 6 7 5 4 6 7 8 7 8 9 8 9 10 9 7 5 5 4 3 2 1 3 4 5 1 3 4 4 3 4 3 3 2 1 1 1 1 3
3 3 3 4 4 3 2 6 2 6 7 7 7 5 6 6 6 5 5 6 7 8 10 10 10 7 3 5 4 4 4 4 6 6 7 4 4 4 1 1 2 2 1 2 3 1 1 4 3
1 2 3 4 4 5 6 3 4 5 9 7 5 7 8 8 8 5 7 8 9 8 10 10 10 8 5 6 7 6 7 8 8 8 8 7 4 4 3 3 2 2 3 3 4 3 3 3 4
1 4 5 7 4 5 7 4 9 11 11 8 6 6 5 6 6 8 8 8 9 8 9 9 9 10 12 12 11 9 8 8 8 7 11 11 8 7 7 5 5 4 3 3 2 2 1 1 2
1 2 4 4 4 3 7 3 6 13 11 7 5 4 4 6 6 7 8 8 9 9 10 10 10 12 14 13 10 9 9 9 10 10 10 13 11 10 9 6 5 5 5 4 4 3 2 2 1
3 5 7 3 2 2 8 1 9 11 7 6 5 4 3 5 7 8 7 6 6 7 8 10 11 13 13 12 11 12 12 10 10 9 9 13 12 12 10 8 7 8 6 6 5 4 3 3 3
7 6 5 7 3 4 6 10 9 9 7 5 6 5 5 5 7 6 6 6 6 7 8 10 9 11 12 9 9 9 10 10 9 10 10 12 11 11 9 8 9 8 7 7 6 6 5 5 5
1 4 9 2 1 4 11 13 11 8 7 8 7 6 6 6 5 7 7 7 7 8 9 9 10 8 7 7 8 8 10 9 11 11 14 14 13 13 12 9 10 9 9 10 10 6 6 6 9
5 8 14 5 3 5 8 13 14 11 9 10 11 10 10 9 7 7 7 8 8 9 10 10 10 10 8 6 7 7 8 9 9 10 13 14 15 14 13 12 11 12 9 12 12 12 6 6 9
11 14 12 9 2 5 5 15 19 7 6 6 9 10 11 13 13 10 7 7 7 8 8 9 10 11 12 13 10 10 10 9 9 9 9 12 14 14 14 14 12 12 11 10 12 12 14 8 8
14 12 9 7 5 9 2 8 5 8 9 10 12 13 13 12 9 7 8 9 8 8 7 9 9 10 9 9 9 13 9 9 8 8 9 10 12 13 13 13 12 12 9 11 10 10 10 10 9
5 5 9 6 10 6 8 8 6 4 11 14 16 15 15 13 12 10 8 8 7 6 8 9 11 11 10 11 11 10 13 10 8 7 10 11 11 12 12 11 11 11 9 10 11 10 10 8 7
13 7 5 3 2 9 15 14 7 8 8 13 17 18 18 16 14 11 8 7 7 6 7 8 10 10 10 10 11 13 13 11 8 8 7 6 6 7 10 10 9 9 9 9 8 8 9 8 6
7 11 4 5 6 7 1 11 11 6 5 7 21 20 18 16 14 13 12 10 9 8 8 8 10 11 10 11 11 11 12 12 11 9 7 7 6 6 8 8 8 7 7 7 7 7 6 7 6
17 14 7 8 7 2 2 9 7 1 5 4 11 19 19 18 16 15 15 13 12 11 10 10 10 11 11 10 11 10 10 7 7 8 7 6 6 5 6 6 7 7 7 6 6 4 5 6 5
9 11 2 5 2 3 7 5 7 4 6 6 11 17 20 19 18 17 15 13 13 13 12 12 12 11 10 11 10 9 9 9 8 8 7 6 6 4 5 5 5 5 5 5 5 4 5 5 5
5 11 5 4 6 8 6 7 9 9 14 11 13 18 19 19 18 17 15 15 13 12 11 12 11 12 12 11 9 8 8 8 8 7 7 6 6 5 4 3 4 5 5 6 6 5 5 6 5
8 8 5 3 5 5 5 6 6 12 15 18 17 18 20 21 20 18 16 14 13 12 12 12 12 12 11 11 10 10 8 8 7 6 6 6 5 4 3 3 3 4 4 5 5 5 5 6 7
11 10 13 7 7 5 3 6 3 2 8 13 14 16 18 19 20 18 17 15 14 14 13 13 13 12 12 11 11 10 9 8 8 7 6 5 5 4 3 1 2 3 5 5 5 5 5 7 8
Wind_Direction
302 323 257 225 210 128 93 89 333 139 139 47 359 332 62 44 20 53 59 163 75 164 167 172 171 153 144 135 135 132 129 126 122 117 111 105 97 98 107 91 74 67 62 52 51 48 47 42 36
322 253 205 181 190 139 103 95 116 64 44 85 150 166 97 71 48 84 122 122 359 172 169 173 169 165 150 140 139 141 136 132 128 125 119 113 106 107 107 93 77 60 60 55 46 43 41 39 35
254 329 258 66 100 113 121 166 123 93 21 248 132 14 18 41 57 41 15 163 73 152 174 169 172 172 152 142 142 148 143 139 135 130 125 121 110 117 117 107 96 72 57 52 37 34 34 32 33
272 173 131 232 110 88 96 144 159 158 142 68 23 98 110 32 18 11 34 108 82 149 180 143 179 184 160 157 154 161 157 152 148 144 138 131 125 133 131 122 93 82 71 45 42 33 32 32 30
43 238 118 113 104 114 188 99 212 165 96 81 315 95 79 47 35 37 45 40 34 120 164 175 188 203 193 192 166 165 172 169 163 160 160 149 149 145 129 92 94 85 86 62 52 38 33 33 35
143 288 174 164 139 157 188 178 211 149 116 104 98 127 81 60 36 27 42 53 54 79 105 187 195 232 221 212 185 172 174 184 186 184 175 172 157 139 118 99 93 86 93 68 64 46 34 30 33
102 215 121 154 150 170 154 166 199 125 148 84 49 150 120 53 13 28 59 60 54 42 44 38 238 223 265 268 245 187 183 186 213 198 173 179 162 144 110 91 91 83 80 77 78 57 43 33 27
96 106 145 176 180 167 144 163 112 324 100 61 337 155 153 4 347 353 70 60 57 47 35 17 1 308 246 235 226 268 186 183 201 212 197 184 173 151 130 128 103 97 104 95 91 71 64 49 38
264 185 170 172 179 143 141 177 133 8 247 77 34 41 8 346 343 39 50 45 38 36 25 9 356 342 317 262 254 230 251 206 202 216 211 193 218 186 165 106 114 108 125 127 126 110 89 67 65
278 243 160 166 158 150 139 182 162 197 165 136 117 92 42 35 36 39 29 16 13 8 0 357 341 319 277 252 224 229 246 241 218 217 198 225 213 110 105 115 126 129 135 134 143 137 131 153 22
81 306 144 171 161 143 146 185 147 205 202 66 116 107 45 39 46 42 32 17 355 346 351 353 340 325 287 218 209 186 217 242 245 248 146 148 123 122 153 139 166 159 170 155 147 150 227 100 52
205 147 161 133 174 159 192 116 194 221 81 86 89 86 73 48 40 27 14 5 356 350 351 348 346 328 301 250 185 164 186 216 46 49 24 310 188 176 170 185 170 159 192 177 185 261 322 70 108
209 175 195 161 181 226 165 219 256 162 130 117 107 96 70 57 41 29 12 13 359 360 354 356 349 345 308 218 137 111 85 73 70 57 38 29 30 346 51 216 164 219 217 247 207 145 6 316 341
106 225 255 239 204 200 215 209 201 159 153 130 115 70 50 37 22 22 19 11 8 359 6 10 3 2 80 120 82 74 75 65 56 51 43 48 55 64 56 35 35 20 8 358 22 13 12 28 6
40 281 274 223 195 213 182 201 225 143 163 134 110 90 66 38 28 25 11 7 2 9 17 18 21 44 57 56 55 55 52 54 57 57 48 46 36 51 65 62 57 35 39 82 87 96 96 34 3
260 257 254 128 167 141 208 201 150 157 165 146 124 105 88 61 41 30 18 14 12 15 30 36 44 52 65 67 61 57 50 57 58 50 42 47 42 55 59 54 37 32 35 41 41 16 34 24 352
210 257 228 282 183 149 220 197 149 168 190 160 146 134 110 83 55 38 31 35 41 43 54 59 60 67 67 72 81 74 66 64 59 56 49 43 44 56 58 52 45 50 47 43 33 42 17 2 343
202 219 229 240 161 210 224 244 164 176 206 186 165 152 122 90 50 35 38 41 50 61 72 87 89 100 105 98 88 81 74 61 56 49 47 48 50 49 60 57 54 50 47 40 36 39 51 23 341
174 221 253 187 153 246 239 257 195 177 188 188 181 163 135 102 78 63 49 52 69 59 61 50 62 57 85 87 88 72 69 63 56 51 46 45 43 44 45 49 43 47 49 37 26 15 20 22 357
226 245 252 271 204 241 248 253 254 197 220 209 181 170 154 138 113 86 79 79 80 83 84 83 79 73 71 79 88 88 90 75 73 65 55 51 51 45 49 48 45 40 45 41 31 26 14 26 19
226 231 239 262 148 212 275 262 246 202 200 188 186 168 163 157 146 137 117 96 89 77 78 93 99 104 105 109 107 103 101 90 76 63 62 53 53 54 52 52 52 50 44 43 37 28 25 21 29
235 220 238 236 241 261 232 281 228 203 202 199 182 180 167 159 146 137 130 104 83 76 82 81 84 88 89 100 100 107 103 97 81 82 80 71 60 59 57 57 56 54 48 44 38 34 35 28 29
260 142 206 220 237 268 207 263 232 194 222 201 189 181 174 166 161 157 147 127 115 106 98 97 97 93 95 103 108 107 107 109 110 97 88 78 66 57 55 55 55 55 48 44 37 35 31 33 28
137 105 89 96 206 250 225 219 200 209 219 178 183 185 179 173 171 160 149 147 124 111 108 109 104 99 104 102 100 106 116 121 119 114 102 89 78 68 55 57 57 51 50 40 38 31 33 24 25
188 164 190 221 210 250 136 215 257 236 179 187 186 182 178 174 174 169 171 169 155 149 133 124 122 112 106 105 112 119 121 118 119 117 108 108 92 70 57 51 49 47 43 40 33 30 27 20 13
193 193 199 214 204 215 129 227 238 346 124 131 186 176 176 178 181 182 180 176 171 166 159 147 136 130 131 136 127 123 121 117 107 105 108 96 87 76 62 56 50 44 34 28 20 22 15 2 1
176 214 164 113 97 255 205 233 245 183 192 173 165 175 183 183 185 187 183 182 179 179 172 161 154 149 151 141 131 129 129 125 117 110 103 100 96 81 66 51 45 37 30 20 5 14 8 354 352
205 144 168 216 213 230 205 241 223 201 207 182 185 192 187 187 190 191 188 188 188 184 174 168 167 164 157 148 141 137 127 122 123 124 118 121 120 128 108 75 41 27 15 4 359 1 1 346 346
171 193 210 214 221 231 257 229 219 198 191 188 196 194 189 190 192 191 191 191 188 184 180 179 176 173 165 158 153 144 145 147 139 139 150 143 136 137 101 55 33 17 360 0 347 348 347 339 333
236 223 191 200 186 250 317 247 159 155 181 185 188 191 193 194 193 193 192 188 186 189 187 187 186 184 179 169 164 165 162 162 164 166 156 154 153 145 125 104 38 1 354 346 334 330 330 328 326